Timeline UpdatesTrip UpdatesNews PostsPvt PostsTravel TipsAdmin PostsConv PostsFollowed PostsChat RequestsBlog PostsPNR Posts

Disclaimer
Search
 
 
Sun Apr 20, 2014 09:14:45 ISTHomeTrainsΣChainsAtlasPNRForumGalleryNewsFAQTripsMembersLoginFeedback
Latest...
Temporary Stop at Vindhyachal (BDL) for 2 min from 31/3/14-11/4/14 #1040164.
Sat Mar 29, 2014 (02:39PM)
⇐ Return Journey: Train# 14055

14056/Brahmaputra Mail

Oct 02 2013 (12:50PM)
Change Departure Station:
Change Arrival Station:
Post a Train Travel TipPost a Train Travel Tip **new
Post a Comment/Question/Picture/VideoPost a Comment/Question/Picture/Video
Inaugural Run
Tue Oct 01, 1974
Pantry/Catering
✓ Pantry Car Avbl
✓ Catering Avbl
RSA - Rake Sharing
NO RSA
Rake/Coach Composition
LOCO-SLRD-GS-GS-S1-S2-S3-S4-S5-S6-S7-S8-S9-S10-S11-PC-B3-B2-B1-A1-GS-GS-GS-GS-SLRD
Loco
GZB WAP-4/7 (DLI-KIUL) SGUJ WDP-4/4B/4D (KIUL-DBRG)
News    PNR    Forum    Time-Table    Availability    Fare Chart    Map    Arr/Dep History    Trips    Gallery    ΣChains    X/O    Timeline    
Travel Time: 52h 20m    58 halts    Distance: 2598 km    Avg Speed: 49 km/hr
Type: Mail/Express
Zone: NR/Northern
Departs @ 23:40 (Avg 2m late)
Platform# 16
SMTWTFS
Old Delhi Junction/DLI 
Arrives @ 04:00 +3 nights (Avg 4h 47m late)
Platform# 1
SMTWTFS
Dibrugarh/DBRG 

58 halts. 435 intermediate Stations between Old Delhi Junction and Dibrugarh

Show ALL intermediate Stations  Show Old Time-Table

#CodeStation NameX/OArrivesAvgDepartsAvgHaltPFDay#KmSpeedElevZoneAddress
1DLI»Old Delhi Junction (16)»  -23:40+21610.059219mNRNear Chandni Chowk Metro Station, Delhi NCT
2KRJKhurja Junction (4)  01:04+3301:06+342m3282.782199mNCRBulandshahr, Uttar Pradesh
3ALJNAligarh Junction (4)XO  01:38+4101:43+415m22126.273192mNCRAligarh, Uttar Pradesh
4TDLTundla Junction (4)XO  02:47+4702:52+485m--2204.481167mNCRDistt.Firozabad, Uttar Pradesh
5SKBShikohabad Junction (4)O  03:19+5603:21+562m22240.881166mNCRDistrict Firozabad, Uttar Pradesh
6CNBKanpur Central (10)X  05:45+1:2505:55+1:2610m--2435.578128mNCRKanpur, Uttar Pradesh
7ALDAllahabad Junction (10)X  08:25+2:0908:35+2:1410m42629.974100mNCRAllahabad 211003, Uttar Pradesh
8MZPMirzapur (3)X  09:48+2:5309:50+2:542m--2719.44288mNCRMirzapur, Uttar Pradesh
9MGSMughal Sarai Junction (8)  11:20+3:2911:30+3:3010m12782.67583mECRMughalsarai 232101, Uttar Pradesh
10BXRBuxar (3)X  12:47+3:4212:49+3:422m--2876.58467mECRBuxar, Bihar
11ARAAra Junction (3)X  13:38+3:4813:40+3:482m--2945.04563mECRarrah( 06182-233411), Bihar
12PNBEPatna Junction (10)  14:45+3:5914:55+4:0010m12993.94257mECRPatna 800001, Bihar
13PNCPatna Saheb (3)  15:09+4:0815:11+4:102m221003.87859mECRPatna, Bihar
14MKAMokama Junction (3)  16:12+4:4816:14+4:482m--21083.23748mECRPatna, Bihar
15KIULKiul Junction (5)17:10+4:5417:30+5:0020m421117.46653mECRDist. Lakhisarai, Bihar
16AHAAbhaipur  17:51+5:1217:53+5:122m--21140.46052mERAbhaipur, Bihar
17JMPJamalpur Junction (4)X  18:15+5:1418:30+5:1015m--21162.26559mERJamalpur 06344-243101, Bihar
18SGGSultanGanj  18:57+5:1618:59+5:152m--21191.33342mERSultanganj, Bihar
19BGPBhagalpur Junction (6)  19:45+5:0019:57+4:5812m121216.26949mERBhagalpur, Bihar
20CLGKahalgaon (2)  20:23+5:1420:25+5:162m221246.33744mERBhagalpur, Bihar
21SBGSahibganj Junction (3)X  21:37+5:0721:45+5:128m121290.24838mERSahibganj, Jharkhand
22BHWBarharwa Junction (3)  22:53+5:1322:55+5:142m221344.74036mERBarharwa, Jharkhand
23NFKNew Farakka Junction (3)X  23:22+5:1123:24+5:112m221362.73832mERDist - Murshidabad, West Bengal
24MLDTMalda Town (5)X  00:20+5:0200:40+5:0120m--31397.87830mERDist - Malda, West Bengal
25BOEBarsoi Junction (3)X  01:50+5:2801:52+5:282m--31488.37937mNFRdist- katihar, Bihar
26KNEKishanGanj (3)  02:36+5:4202:41+5:425m--31545.95052mNFRKishanganj, Bihar
27NJPNew Jalpaiguri Junction (8)  04:25+5:2604:45+5:2020m131633.252114mNFRCity-Siliguri . Dist-Jalpaiguri, West Bengal
28JPEJalpaiguri Road (2)  05:24+5:3305:26+5:352m131666.77189mNFRdist - Jalpaiguri 735102, West Bengal
29DQGDhupguri (2)  05:53+5:4205:58+5:445m--31698.56775mNFRDist - Jalpaiguri, West Bengal
30FLKFalakata (3)  06:18+5:4006:20+5:432m--31720.94567mNFRDist - Jalpaiguri, West Bengal
31NCBNew Cooch Behar Junction (5)  07:10+5:5007:15+5:505m--31758.75647mNFRCooch Behar, West Bengal
32NOQNew Alipurduar (2)  07:35+5:5207:40+5:515m--31777.37848mNFRAlipurduar-736121 03564-255207, West Bengal
33GOGHGossaigaon Hat (3)  08:15+5:5008:17+5:502m--31823.073 NFRKokrajhar, Assam
34FKMFakiragram Junction (4)X  08:36+5:5008:38+5:502m331846.35944mNFR03661-283454, Assam
35KOJKokrajhar (3)X  08:48+5:4308:50+5:432m--31856.22246mNFR03661-270618, Assam
36NBQNew Bongaigaon Junction (4)  10:05+5:4510:15+5:4410m--31884.12458mNFR783381., Assam
37BNGNBongaigaon (3)  10:21+5:4510:23+5:462m--31886.56360mNFRBongaigaon, Assam
38BJFBijniX  10:37+5:5110:39+5:522m--31901.25854mNFRDist: Chirang, Assam
39BPRDBarpeta Road  11:07+5:4711:12+5:515m--31928.15849mNFRHowli, Assam
40NLVNalbariX  12:02+5:5112:04+5:492m--31976.54754mNFRNalbari, Assam
41RNYRangiya Junction (5)X  12:25+5:4612:35+5:3710m--31993.03058mNFRRangia, Assam
42KYQKamakhya Junction (4)  13:57+5:3914:02+5:355m--32033.71855mNFRDist - KAMRUP, Assam
43GHYGuwahati (7)X  14:25+5:3714:40+5:3815m--32040.63160mNFRGuwahati, Assam
44DGUDigaruX  15:20+5:4215:22+5:432m--32061.38758mNFRDigaru, Assam
45JIDJagi Road (2)  15:47+5:4315:49+5:452m--32097.76662mNFRJagiroad, Assam
46CPKChaparmukh Junction (3)X  16:20+5:4416:25+5:455m--32131.65265mNFRChaparmukh. Dist. Nagaon. Changing point for HBN/SHTT, Assam
47KWMKampurX  16:45+5:4416:47+5:462m--32148.95968mNFRKampur, Assam
48JMKJamunamukhX  16:58+5:4717:00+5:472m--32159.73570mNFRNational Highway 36, Assam
49HJIHojai (2)  17:28+5:3717:30+5:382m--32176.26078mNFRHojai Rd. Ph:- 03674-252136., Assam
50LKALankaX  17:44+5:4017:46+5:402m--32190.22789mNFRLanka, Assam
51LMGLumding Junction (5)O  18:55+5:1519:10+5:1415m332221.434142mNFRPh:-03674-263366. changing point for SCL/AGTL, Assam
52DPUDiphu (2)  20:06+5:1520:08+5:112m--32253.560180mNFRDiphu, Assam
53DMVDimapur (3)  20:45+5:0920:55+5:1010m--32290.853153mNFRDimapur, Nagaland
54BXJBokajan (2)  21:11+5:1121:13+5:112m--32305.044138mNFRBokajan, Assam
55FKGFurkating Junction (2)  22:30+5:0922:32+5:112m--32360.953101mNFRK B Rd, Assam
56MXNMariani Junction (4)X  23:15+5:1523:25+5:1810m132399.072117mNFRDist. Jorhat Pin-785634, Assam
57SLGRSimaluguri Junction (3)  00:10+5:3300:15+5:325m142453.26899mNFRSimaluguri, Assam
58BOJBhojo  00:45+5:3300:50+5:315m--42487.139107mNFRBhojo Railway Station, Assam
59NTSKNew Tinsukia Junction (3)  02:35+5:0102:45+5:0110m--42555.734124mNFRDist: Tinsukia, Assam
60DBRG•Dibrugarh (4)•  04:00+4:47-142597.7-108mNFRDibrugarh 786003, Assam
Scroll to Top
Scroll to Bottom